When you browse on this site, cookies collect data to enhance your experience and personalize the content and advertising you see.
Visit our Privacy Policy to learn more. By continuing to use the site, you agree to this use of cookies and data.
  • En España
  • Lista de países
  • Para 7 días
  • Temperatura del agua
  • Mapa Satelital
  • El tiempo en el mapa
  • Informadores
  • user-avatar
    Iniciar sesión

    Tiempo cada hora Mahdia

    Hoy, 22 Mayo, Miércoles

    Tiempo Temperatura Precipitaciones Viento Presión Humedad
    00:00 +20°C° 0 mm 3 mps 763 mmHg 56%
    01:00 +20°C° 0 mm 2 mps 763 mmHg 57%
    02:00 +20°C° 0 mm 2 mps 763 mmHg 58%
    03:00 +20°C° 0 mm 2 mps 763 mmHg 59%
    04:00 +19°C° 0 mm 2 mps 763 mmHg 60%
    05:00 +20°C° 0 mm 2 mps 763 mmHg 58%
    06:00 +20°C° 0 mm 2 mps 763 mmHg 57%
    07:00 +20°C° 0 mm 2 mps 763 mmHg 55%
    08:00 +22°C° 0 mm 1 mps 763 mmHg 51%
    09:00 +23°C° 0 mm 1 mps 763 mmHg 46%
    10:00 +22°C° 0 mm 0 mps 763 mmHg 41%
    11:00 +25°C° 0 mm 2 mps 763 mmHg 38%
    12:00 +26°C° 0 mm 3 mps 763 mmHg 36%
    13:00 +27°C° 0 mm 4 mps 763 mmHg 33%
    14:00 +26°C° 0 mm 4 mps 763 mmHg 36%
    15:00 +26°C° 0 mm 5 mps 763 mmHg 38%
    16:00 +25°C° 0 mm 5 mps 762 mmHg 40%
    17:00 +25°C° 0 mm 4 mps 762 mmHg 43%
    18:00 +23°C° 0 mm 4 mps 763 mmHg 45%
    19:00 +22°C° 0 mm 4 mps 763 mmHg 48%
    20:00 +22°C° 0 mm 3 mps 763 mmHg 50%
    21:00 +21°C° 0 mm 2 mps 764 mmHg 52%
    22:00 +20°C° 0 mm 0 mps 764 mmHg 54%
    23:00 +22°C° 0.2 mm 1 mps 764 mmHg 56%

    Mañana, 23 Mayo, Jueves

    Tiempo Temperatura Precipitaciones Viento Presión Humedad
    00:00 +20°C° 0.2 mm 2 mps 764 mmHg 58%
    01:00 +20°C° 0.2 mm 3 mps 764 mmHg 61%
    02:00 +20°C° 0.5 mm 3 mps 764 mmHg 64%
    03:00 +19°C° 0.5 mm 2 mps 764 mmHg 66%
    04:00 +19°C° 0.5 mm 2 mps 764 mmHg 69%
    05:00 +19°C° 0 mm 2 mps 764 mmHg 68%
    06:00 +20°C° 0 mm 3 mps 764 mmHg 66%
    07:00 +20°C° 0 mm 3 mps 764 mmHg 65%
    08:00 +21°C° 0 mm 3 mps 764 mmHg 59%
    09:00 +22°C° 0 mm 3 mps 764 mmHg 54%
    10:00 +24°C° 0 mm 3 mps 765 mmHg 49%
    11:00 +25°C° 0 mm 3 mps 764 mmHg 47%
    12:00 +25°C° 0 mm 4 mps 764 mmHg 45%
    13:00 +26°C° 0 mm 4 mps 764 mmHg 43%
    14:00 +26°C° 0 mm 4 mps 764 mmHg 41%
    15:00 +26°C° 0 mm 4 mps 763 mmHg 39%
    16:00 +26°C° 0 mm 4 mps 763 mmHg 37%
    17:00 +25°C° 0 mm 4 mps 763 mmHg 40%
    18:00 +23°C° 0 mm 4 mps 763 mmHg 44%
    19:00 +22°C° 0 mm 4 mps 763 mmHg 47%
    20:00 +22°C° 0 mm 3 mps 764 mmHg 49%
    21:00 +21°C° 0 mm 2 mps 764 mmHg 51%
    22:00 +22°C° 0 mm 1 mps 765 mmHg 54%
    23:00 +22°C° 0 mm 1 mps 764 mmHg 53%

    Pasado mañana, 24 Mayo, Viernes

    Tiempo Temperatura Precipitaciones Viento Presión Humedad
    00:00 +22°C° 0 mm 1 mps 764 mmHg 53%
    01:00 +21°C° 0 mm 1 mps 764 mmHg 53%
    02:00 +21°C° 0 mm 1 mps 763 mmHg 52%
    03:00 +21°C° 0 mm 1 mps 763 mmHg 52%
    04:00 +21°C° 0 mm 1 mps 763 mmHg 52%
    05:00 +21°C° 0 mm 1 mps 763 mmHg 50%
    06:00 +21°C° 0 mm 2 mps 763 mmHg 49%
    07:00 +21°C° 0 mm 2 mps 763 mmHg 47%
    08:00 +22°C° 0 mm 3 mps 763 mmHg 44%
    09:00 +24°C° 0 mm 3 mps 763 mmHg 41%
    10:00 +26°C° 0 mm 3 mps 763 mmHg 38%
    11:00 +26°C° 0 mm 4 mps 762 mmHg 37%
    12:00 +27°C° 0 mm 5 mps 762 mmHg 36%
    13:00 +28°C° 0 mm 6 mps 762 mmHg 36%
    14:00 +27°C° 0 mm 7 mps 761 mmHg 38%
    15:00 +26°C° 0 mm 7 mps 761 mmHg 41%
    16:00 +24°C° 0 mm 8 mps 760 mmHg 43%
    17:00 +24°C° 0 mm 7 mps 760 mmHg 45%
    18:00 +23°C° 0 mm 7 mps 760 mmHg 46%
    19:00 +23°C° 0 mm 7 mps 760 mmHg 48%
    20:00 +23°C° 0 mm 7 mps 760 mmHg 50%
    21:00 +22°C° 0 mm 8 mps 760 mmHg 52%
    22:00 +22°C° 0 mm 8 mps 760 mmHg 53%
    23:00 +22°C° 0 mm 7 mps 760 mmHg 55%

    25 Mayo, Sábado

    Tiempo Temperatura Precipitaciones Viento Presión Humedad
    00:00 +22°C° 0 mm 7 mps 760 mmHg 57%
    01:00 +22°C° 0 mm 6 mps 760 mmHg 58%
    02:00 +21°C° 0 mm 5 mps 760 mmHg 61%
    03:00 +21°C° 0 mm 4 mps 759 mmHg 63%
    04:00 +21°C° 0 mm 3 mps 759 mmHg 66%
    05:00 +21°C° 0 mm 3 mps 759 mmHg 65%
    06:00 +21°C° 0 mm 3 mps 759 mmHg 64%
    07:00 +22°C° 0 mm 4 mps 760 mmHg 64%
    08:00 +23°C° 0 mm 4 mps 760 mmHg 58%
    09:00 +25°C° 0 mm 5 mps 760 mmHg 53%
    10:00 +26°C° 0 mm 6 mps 760 mmHg 47%
    11:00 +26°C° 0 mm 6 mps 760 mmHg 46%
    12:00 +26°C° 0 mm 6 mps 760 mmHg 46%
    13:00 +27°C° 0 mm 7 mps 759 mmHg 45%
    14:00 +26°C° 0 mm 6 mps 759 mmHg 46%
    15:00 +26°C° 0 mm 6 mps 759 mmHg 46%
    16:00 +26°C° 0 mm 6 mps 758 mmHg 47%
    17:00 +24°C° 0 mm 6 mps 758 mmHg 52%
    18:00 +23°C° 0 mm 6 mps 758 mmHg 57%
    19:00 +22°C° 0 mm 6 mps 758 mmHg 62%
    20:00 +22°C° 0 mm 6 mps 758 mmHg 64%
    21:00 +22°C° 0 mm 5 mps 759 mmHg 66%
    22:00 +21°C° 0 mm 5 mps 759 mmHg 68%
    23:00 +21°C° 0 mm 6 mps 759 mmHg 70%

    26 Mayo, Domingo

    Tiempo Temperatura Precipitaciones Viento Presión Humedad
    00:00 +21°C° 0 mm 7 mps 759 mmHg 72%
    01:00 +20°C° 0 mm 8 mps 758 mmHg 74%
    02:00 +20°C° 0.2 mm 8 mps 758 mmHg 74%
    03:00 +20°C° 0.2 mm 7 mps 758 mmHg 75%
    04:00 +20°C° 0.2 mm 7 mps 757 mmHg 75%
    05:00 +21°C° 0.1 mm 7 mps 757 mmHg 75%
    06:00 +21°C° 0.1 mm 8 mps 757 mmHg 75%
    07:00 +21°C° 0.1 mm 8 mps 757 mmHg 75%
    08:00 +22°C° 0 mm 8 mps 757 mmHg 70%
    09:00 +23°C° 0 mm 7 mps 757 mmHg 65%
    10:00 +24°C° 0 mm 6 mps 756 mmHg 60%
    11:00 +24°C° 0.2 mm 6 mps 756 mmHg 59%
    12:00 +26°C° 0.2 mm 7 mps 756 mmHg 57%
    13:00 +26°C° 0.2 mm 7 mps 755 mmHg 56%
    14:00 +26°C° 0 mm 7 mps 755 mmHg 58%
    15:00 +24°C° 0 mm 8 mps 754 mmHg 59%
    16:00 +24°C° 0 mm 9 mps 753 mmHg 61%
    17:00 +23°C° 0 mm 7 mps 753 mmHg 62%
    18:00 +23°C° 0 mm 6 mps 753 mmHg 63%
    19:00 +23°C° 0 mm 4 mps 753 mmHg 64%
    20:00 +22°C° 0 mm 5 mps 754 mmHg 66%
    21:00 +22°C° 0 mm 5 mps 754 mmHg 69%
    22:00 +21°C° 0 mm 6 mps 755 mmHg 71%
    23:00 +21°C° 0 mm 6 mps 754 mmHg 73%

    27 Mayo, Lunes

    Tiempo Temperatura Precipitaciones Viento Presión Humedad
    00:00 +21°C° 0 mm 6 mps 754 mmHg 74%
    01:00 +21°C° 0 mm 6 mps 754 mmHg 76%
    02:00 +21°C° 0 mm 6 mps 754 mmHg 77%
    03:00 +20°C° 0 mm 5 mps 754 mmHg 78%
    04:00 +20°C° 0 mm 5 mps 754 mmHg 80%
    05:00 +20°C° 0 mm 5 mps 754 mmHg 79%
    06:00 +21°C° 0 mm 4 mps 754 mmHg 78%
    07:00 +21°C° 0 mm 4 mps 754 mmHg 77%
    08:00 +21°C° 0 mm 5 mps 754 mmHg 73%
    09:00 +22°C° 0 mm 5 mps 754 mmHg 69%
    10:00 +23°C° 0 mm 6 mps 755 mmHg 66%
    11:00 +23°C° 0 mm 6 mps 754 mmHg 63%
    12:00 +24°C° 0 mm 6 mps 754 mmHg 61%
    13:00 +24°C° 0 mm 6 mps 754 mmHg 59%
    14:00 +26°C° 0 mm 6 mps 754 mmHg 58%
    15:00 +26°C° 0 mm 6 mps 754 mmHg 57%
    16:00 +26°C° 0 mm 6 mps 754 mmHg 56%
    17:00 +24°C° 0 mm 6 mps 754 mmHg 59%
    18:00 +25°C° 0 mm 5 mps 755 mmHg 62%
    19:00 +23°C° 0 mm 5 mps 755 mmHg 64%
    20:00 +23°C° 0 mm 5 mps 755 mmHg 67%
    21:00 +22°C° 0 mm 5 mps 756 mmHg 69%
    22:00 +22°C° 0 mm 6 mps 757 mmHg 72%
    23:00 +21°C° 0 mm 5 mps 757 mmHg 73%
    Mostrar más